Houston Hull, TX

9:50 AM CDT on October 20, 2019 (GMT -0500)
Sugar Land Municipal-Hull

Weather History for KSGR - August, 2019

Change the Weather History Date:

Tuesday, August 20, 2019

  Actual Average Record
Temperature  
Mean Temperature 83 °F -  
Max Temperature 91 °F 93 °F 105 °F (1999)
Min Temperature 75 °F 73 °F 67 °F (1976)
Cooling Degree Days 18    
Growing Degree Days 33 (Base 50)    
Moisture  
Dew Point 77 °F    
Average Humidity 83    
Maximum Humidity 100    
Minimum Humidity 57    
Precipitation  
Precipitation 0.01 in - - ()
Sea Level Pressure  
Sea Level Pressure 30.01 in    
Wind  
Wind Speed 5 mph ()    
Max Wind Speed 16 mph    
Max Gust Speed 24 mph    
Visibility 9.9 miles    
Events Rain , Thunderstorm    
Averages and records for this station are not official NWS values.
T = Trace of Precipitation, MM = Missing Value Source: Averaged Metar Reports

Daily Weather History Graph

Daily Weather History Graph

Search for Another Location

Airport or City:

Astronomy

Aug. 20, 2019 Rise Set
Actual Time 6:53 AM CDT 7:58 PM CDT
Civil Twilight 6:28 AM CDT 8:23 PM CDT
Nautical Twilight 5:59 AM CDT 8:52 PM CDT
Astronomical Twilight 5:28 AM CDT 9:22 PM CDT
Moon 11:08 PM CDT 11:12 AM CDT
Length of Visible Light 13h 54m
Length of Day
13h 05m
Waning Gibbous, 77% of the Moon is Illuminated
Aug 20
Waning Gibbous
Aug 23
Last Quarter
Aug 30
New
Sep 5
First Quarter
Sep 13
Full

Hourly Weather History & Observations

Time (CDT) Temp. Heat Index Dew Point Humidity Pressure Visibility Wind Dir Wind Speed Gust Speed Precip Events Conditions
12:53 AM 81.0 °F 88.6 °F 78.1 °F 91% 29.99 in 10.0 mi South 5.8 mph - N/A   Clear
1:53 AM 81.0 °F 89.2 °F 79.0 °F 94% 29.98 in 10.0 mi SW 3.5 mph - N/A   Clear
2:53 AM 80.1 °F 86.4 °F 78.1 °F 94% 29.98 in 10.0 mi Calm Calm - N/A   Clear
3:42 AM 78.1 °F - 78.1 °F 100% 29.99 in 10.0 mi South 3.5 mph - N/A   Mostly Cloudy
3:53 AM 79.0 °F - 78.1 °F 97% 29.99 in 10.0 mi SSW 4.6 mph - N/A   Mostly Cloudy
4:00 AM 78.1 °F - 78.1 °F 100% 29.98 in 10.0 mi SW 3.5 mph - N/A   Scattered Clouds
4:53 AM 77.0 °F - 77.0 °F 100% 29.99 in 9.0 mi Calm Calm - N/A   Scattered Clouds
5:53 AM 77.0 °F - 77.0 °F 100% 29.99 in 9.0 mi Calm Calm - N/A   Clear
6:53 AM 75.9 °F - 75.9 °F 100% 30.01 in 9.0 mi Calm Calm - N/A   Clear
7:53 AM 80.1 °F 87.4 °F 80.1 °F 100% 30.02 in 10.0 mi Calm Calm - N/A   Scattered Clouds
8:11 AM 82.0 °F 92.8 °F 80.1 °F 94% 30.02 in 10.0 mi Calm Calm - N/A   Mostly Cloudy
8:53 AM 84.9 °F 98.9 °F 80.1 °F 85% 30.03 in 10.0 mi Calm Calm - N/A   Clear
9:53 AM 88.0 °F 103.1 °F 79.0 °F 75% 30.04 in 10.0 mi SW 5.8 mph - N/A   Partly Cloudy
10:53 AM 88.0 °F 103.1 °F 79.0 °F 75% 30.04 in 10.0 mi SSW 4.6 mph - 0.00 in   Scattered Clouds
11:53 AM 91.0 °F 104.2 °F 77.0 °F 63% 30.03 in 10.0 mi South 6.9 mph - N/A   Partly Cloudy
12:53 PM 91.0 °F 100.4 °F 73.9 °F 57% 30.03 in 10.0 mi South 11.5 mph 20.7 mph N/A   Partly Cloudy
1:03 PM 87.1 °F 95.4 °F 73.9 °F 65% 30.03 in 10.0 mi South 15.0 mph 24.2 mph N/A Thunderstorm Mostly Cloudy
1:18 PM 84.9 °F 92.1 °F 73.9 °F 69% 30.04 in 9.0 mi SSE 16.1 mph - 0.00 in Rain , Thunderstorm Thunderstorms and Rain
1:33 PM 81.0 °F 86.7 °F 75.0 °F 82% 30.05 in 10.0 mi SE 16.1 mph 24.2 mph 0.01 in Thunderstorm Overcast
1:43 PM 80.1 °F 85.4 °F 75.9 °F 87% 30.05 in 10.0 mi ESE 11.5 mph - 0.01 in Rain , Thunderstorm Light Thunderstorms and Rain
1:53 PM 78.1 °F - 75.9 °F 93% 30.06 in 10.0 mi ESE 10.4 mph - 0.01 in Rain , Thunderstorm Light Thunderstorms and Rain
2:53 PM 80.1 °F 85.4 °F 75.9 °F 87% 30.04 in 10.0 mi SSE 4.6 mph - 0.00 in Thunderstorm Thunderstorm
3:53 PM 84.9 °F 93.3 °F 75.0 °F 72% 30.02 in 10.0 mi SSE 5.8 mph - N/A Thunderstorm Thunderstorm
4:53 PM 90.0 °F 101.3 °F 75.9 °F 63% 30.00 in 10.0 mi South 6.9 mph - N/A   Clear
5:53 PM 90.0 °F 97.9 °F 73.0 °F 57% 29.99 in 10.0 mi SSE 8.1 mph - N/A   Clear
6:53 PM 88.0 °F 95.6 °F 73.0 °F 61% 29.99 in 10.0 mi SSE 12.7 mph - N/A   Clear
7:53 PM 86.0 °F 93.0 °F 73.0 °F 65% 29.99 in 10.0 mi SSE 9.2 mph - N/A   Clear
8:53 PM 82.0 °F 90.2 °F 77.0 °F 85% 29.98 in 10.0 mi South 8.1 mph - N/A   Clear
9:53 PM 81.0 °F 87.9 °F 77.0 °F 88% 29.99 in 10.0 mi South 6.9 mph - N/A   Clear
10:53 PM 80.1 °F 86.4 °F 78.1 °F 94% 30.01 in 10.0 mi SSE 5.8 mph - N/A   Clear
11:53 PM 81.0 °F 88.6 °F 78.1 °F 91% 30.02 in 10.0 mi SSE 5.8 mph - N/A   Clear